2020-053B

Last updated on Wed Apr 21 2021 08:06:39 GMT+0000 (Coordinated Universal Time)

1 45986U 20053B 21110.85941241 -.00000137 00000-0 00000-0 0 9993 2 45986 0.0168 315.2307 0001098 288.8352 354.4842 1.00272680 2754
UTC large
Height (km)
Speed (km/s)
/
Latitude / Longitude
Inclination (degrees)
Orbital Period (minutes)
Azimuth
Elevation
Range (km)
Doppler Factor

Next 0 passes for location: London (51.5072 / 0.1276)

Sorry there are no passes over London.